Flag for Australia Weather past 2 weeks in Traralgon, Victoria, Australia

Now
54 °F

Low clouds.


Feels Like: 54 °F
Forecast: 49 / 80 °F
Wind: 2 mph from West

Location: Latrobe Valley Airport

Current Time: Apr 1, 2015 at 9:49:30 AM

Latest Report: Apr 1, 2015 at 9:00 AM


Visibility: 0 mi

Pressure: 30.11 "Hg

Humidity: 100%

Dew point: 54 °F

Location of TraralgonLocation

Historic Weather in Traralgon — Graph

°F

Traralgon temperature yesterday

Maximum temperature yesterday: 78 °F (at 4:00 PM)
Minimum temperature yesterday: 45 °F (at 7:00 AM)
Average temperature yesterday: 60 °F

Past Weeks' High & Low Weather Summary

 TemperatureHumidityPressure
High91 °F (Mar 19, 4:00 PM)100% (Mar 18, 7:00 AM)30.36 "Hg (Mar 18, 7:00 AM)
Low38 °F (Mar 21, 6:00 AM)30% (Mar 19, 4:00 PM)29.57 "Hg (Mar 18, 6:00 AM)
Average60 °F79%30.03 "Hg
* Reported Mar 17 7:00 AM — Apr 1 7:00 AM, Traralgon, Weather by CustomWeather, © 2015

Note: Actual official high and low records may vary slightly from our data, if they occured in-between our weather recording intervals... More about our weather records

Advertising

Traralgon weather history for previous 24 hours

 ConditionsComfort  
Time TempWeatherWind HumidityBarometerVisibility
7:00 AM
Wed, Apr 1
52 °FCool.No wind100%30.12 "HgN/A
6:00 AM54 °FLow clouds.3 mph100%30.12 "Hg0 mi
4:00 AM56 °FCool.3 mph100%30.14 "HgN/A
3:00 AM58 °FLow clouds.3 mph100%30.16 "Hg2 mi
1:00 AM58 °FCool.1 mph100%30.20 "HgN/A
12:00 AM57 °FPassing clouds.1 mph100%30.21 "Hg4 mi
10:00 PM
Tue, Mar 31
60 °FCool.5 mph97%30.23 "HgN/A
9:00 PM62 °FCool.7 mph92%30.22 "HgN/A
7:00 PM68 °FMild.12 mph71%30.20 "HgN/A
6:00 PM75 °FMild.8 mph52%30.18 "HgN/A
4:00 PM78 °FWarm.5 mph47%30.19 "HgN/A
3:00 PM76 °FMild.7 mph49%30.20 "HgN/A
1:00 PM72 °FMild.8 mph54%30.26 "HgN/A
12:00 PM69 °FMild.9 mph58%30.30 "HgN/A
10:00 AM56 °FCool.No wind100%30.33 "HgN/A
9:00 AM51 °FScattered clouds.No wind100%30.33 "Hg4 mi
Weather by CustomWeather, © 2015

See weather overviewHow to use our weather pages